Location: Camp Crooked Creek
(37.9149°N, 85.6607°W)
Time: 03:45:54
(UTC-04:00)

Lacrosse 4 - Visible Passes

Search period start: 03 June 2015 00:00
Search period end: 13 June 2015 00:00
Orbit: 673 x 680 km, 68.0° (Epoch: 25 February)

Date Brightness Start Highest point End Pass type
(mag) Time Alt. Az. Time Alt. Az. Time Alt. Az.
03 Jun 3.0 05:25:53 10° S 05:30:16 38° ESE 05:34:41 10° NE visible
04 Jun 4.4 04:23:51 10° ESE 04:25:18 12° ESE 04:27:03 10° E visible
05 Jun 3.0 04:56:04 10° S 05:00:24 37° ESE 05:04:48 10° NE visible
06 Jun 4.3 03:54:13 10° ESE 03:55:27 11° ESE 03:57:00 10° E visible
06 Jun 1.8 05:30:59 10° SSW 05:35:43 69° WNW 05:40:29 10° NNE visible
07 Jun 2.9 04:27:34 18° SSE 04:30:32 36° ESE 04:34:55 10° NE visible
08 Jun 4.3 03:24:38 10° ESE 03:25:35 11° ESE 03:26:53 10° E visible
08 Jun 1.8 05:02:27 19° SW 05:05:51 72° WNW 05:10:37 10° NNE visible
09 Jun 2.9 03:58:58 26° SSE 04:00:41 35° ESE 04:05:01 10° NE visible
09 Jun 3.2 05:37:35 10° WSW 05:41:33 25° NW 05:45:26 10° N visible
10 Jun 4.3 02:55:26 10° ESE 02:55:45 10° ESE 02:56:41 10° E visible
10 Jun 1.7 04:33:45 31° SW 04:35:58 74° WNW 04:40:45 10° NNE visible
11 Jun 2.8 03:30:09 32° SE 03:30:49 34° ESE 03:35:07 10° NE visible
11 Jun 3.2 05:08:28 14° WSW 05:11:39 25° NW 05:15:35 10° N visible
12 Jun 1.7 04:04:50 48° SW 04:06:06 76° WNW 04:10:53 10° NNE visible
